Regional Weather Roundup
Issued by NWS

Home | Current Version | Previous Version | Graphics & Text | Print | Product List | Glossary Off
Versions: 1 2 3 4 5 6 7 8 9 10 11 12 13 14 15 16 17 18 19 20 21 22 23 24 25 26 27 28 29 30 31 32 33 34 35 36 37 38 39 40 41 42 43 44 45 46 47 48 49 50

000
ASUS43 KTOP 280908
RWRKS

WEATHER ROUNDUP FOR KANSAS
NATIONAL WEATHER SERVICE GOODLAND KS
400 AM CDT SAT MAR 28 2015

NOTE:  "FAIR" INDICATES FEW OR NO CLOUDS BELOW 12,000 FEET WITH NO
SIGNIFICANT WEATHER AND/OR OBSTRUCTIONS TO VISIBILITY.

KSZ001>006-013>018-027>032-041>047-281000-
NORTHWEST KANSAS

CITY           SKY/WX    TMP DP  RH WIND       PRES   REMARKS
GOODLAND       CLEAR     43  33  68 W9        30.00F
HAYS           CLEAR     37  27  65 CALM      29.95S
HILL CITY      PTCLDY    35  30  82 NW7       29.96S
RUSSELL        CLEAR     37  33  85 S9        29.93F
$$

KSZ061>065-074>080-084>089-281000-
SOUTHWEST KANSAS

CITY           SKY/WX    TMP DP  RH WIND       PRES   REMARKS
DODGE CITY     CLEAR     46  34  62 SW12      29.97F
ELKHART          N/A     49  32  52 W9          N/A
GARDEN CITY    CLEAR     45  36  70 W9        29.97F
GREAT BEND     CLEAR     37  30  75 SE5       29.96F
LIBERAL        CLEAR     46  30  53 SW15      30.02F
PRATT          CLEAR     41  36  81 SW13      29.95F
$$

KSZ066>073-081>083-090>101-281000-
SOUTHEAST KANSAS

CITY           SKY/WX    TMP DP  RH WIND       PRES   REMARKS
CHANUTE        CLOUDY    41  29  62 S9        30.07F
COFFEYVILLE    CLOUDY    44  31  60 SE7       30.08S
HUTCHINSON     CLOUDY    42  32  67 SE8       29.98F
MEDICINE LODGE   N/A     40  35  83 S3        29.97F
NEWTON         MOCLDY    43  28  56 S8        30.01F
PARSONS        CLOUDY    43  31  62 SE3       30.09S
WICHITA INTL   PTCLDY    42  30  62 S10       29.99F
WICHITA JABRA  MOCLDY    44  31  60 S9        30.00F
WICHITA MCCONL CLOUDY    44  32  62 SE9       30.00F
WINFIELD       PTCLDY    43  31  62 SE7       30.03F
$$

KSZ007>012-019>026-033>040-048>060-102>105-281000-
NORTHEAST KANSAS

CITY           SKY/WX    TMP DP  RH WIND       PRES   REMARKS
CONCORDIA      MOCLDY    39  26  59 SE6       29.97F
EMPORIA        CLOUDY    39  25  57 SE8       30.04F
LAWRENCE       CLOUDY    38  25  59 SE7       30.08F
MANHATTAN      MOCLDY    39  24  55 SE3       30.02F
MARYSVILLE     MOCLDY    36  27  69 SE8       30.02F
OLATHE IND     CLOUDY    38  25  59 E6        30.09F
OLATHE EXE     CLOUDY    38  23  55 SE8       30.08F
SALINA         MOCLDY    44  31  60 E5        30.00F
TOPEKA BILLARD CLOUDY    40  24  53 SE8       30.08F
TOPEKA FORBES  LGT RAIN  39  25  57 E8        30.06F
$$



USA.gov is the U.S. government's official web portal to all federal, state and local government web resources and services.